• In Austria
  • List of Countries
  • For 7 days
  • Water Temperature
  • Satellite Maps
  • Weather Map
  • News
  • Weather Widgets
  • user-avatar
    Login

    Hourly Weather Borzhomi

    Today, 16 November, Friday

    Time Temperature Precipitation Wind Pressure Humidity
    00:00 +4°C° 0.1 mm 2 mps 666 mmHg 80%
    01:00 +4°C° 0.2 mm 2 mps 666 mmHg 80%
    02:00 +4°C° 0.2 mm 2 mps 666 mmHg 80%
    03:00 +4°C° 0 mm 2 mps 665 mmHg 79%
    04:00 +4°C° 0.1 mm 2 mps 665 mmHg 79%
    05:00 +4°C° 0.1 mm 2 mps 665 mmHg 79%
    06:00 +4°C° 0.1 mm 2 mps 665 mmHg 79%
    07:00 +5°C° 0 mm 2 mps 665 mmHg 76%
    08:00 +6°C° 0 mm 2 mps 666 mmHg 72%
    09:00 +7°C° 0 mm 3 mps 666 mmHg 69%
    10:00 +8°C° 0 mm 3 mps 666 mmHg 65%
    11:00 +9°C° 0 mm 3 mps 667 mmHg 62%
    12:00 +10°C° 0 mm 3 mps 667 mmHg 58%
    13:00 +10°C° 0 mm 3 mps 667 mmHg 58%
    14:00 +10°C° 0 mm 3 mps 667 mmHg 58%
    15:00 +10°C° 0 mm 3 mps 667 mmHg 58%
    16:00 +8°C° 0 mm 3 mps 667 mmHg 64%
    17:00 +7°C° 0 mm 2 mps 667 mmHg 69%
    18:00 +6°C° 0 mm 2 mps 667 mmHg 74%
    19:00 +6°C° 0 mm 2 mps 667 mmHg 74%
    20:00 +5°C° 0 mm 3 mps 667 mmHg 74%
    21:00 +5°C° 0 mm 3 mps 667 mmHg 74%
    22:00 +5°C° 0 mm 3 mps 667 mmHg 74%
    23:00 +4°C° 0 mm 3 mps 667 mmHg 74%

    Tomorrow, 17 November, Saturday

    Time Temperature Precipitation Wind Pressure Humidity
    00:00 +4°C° 0 mm 3 mps 667 mmHg 74%
    01:00 +5°C° 1.3 mm 2 mps 668 mmHg 79%
    02:00 +5°C° 1.3 mm 2 mps 668 mmHg 84%
    03:00 +4°C° 1.3 mm 2 mps 668 mmHg 88%
    04:00 +5°C° 0.9 mm 1 mps 668 mmHg 90%
    05:00 +5°C° 0.9 mm 1 mps 669 mmHg 91%
    06:00 +5°C° 0.9 mm 1 mps 669 mmHg 92%
    07:00 +5°C° 0.4 mm 0 mps 669 mmHg 89%
    08:00 +5°C° 0.4 mm 0 mps 670 mmHg 87%
    09:00 +5°C° 0.4 mm 0 mps 670 mmHg 84%
    10:00 +7°C° 0.4 mm 1 mps 670 mmHg 82%
    11:00 +7°C° 0.4 mm 1 mps 670 mmHg 79%
    12:00 +8°C° 0.4 mm 1 mps 670 mmHg 77%
    13:00 +7°C° 0.2 mm 1 mps 670 mmHg 78%
    14:00 +7°C° 0.2 mm 1 mps 670 mmHg 79%
    15:00 +6°C° 0.2 mm 2 mps 670 mmHg 80%
    16:00 +6°C° 0.1 mm 1 mps 670 mmHg 83%
    17:00 +5°C° 0.1 mm 1 mps 671 mmHg 87%
    18:00 +4°C° 0.1 mm 1 mps 671 mmHg 90%
    19:00 +4°C° 0 mm 1 mps 671 mmHg 90%
    20:00 +3°C° 0 mm 1 mps 671 mmHg 90%
    21:00 +3°C° 0 mm 1 mps 671 mmHg 90%
    22:00 +3°C° 0 mm 1 mps 671 mmHg 89%
    23:00 +3°C° 0 mm 1 mps 671 mmHg 87%

    Day after tomorrow, 18 November, Sunday

    Time Temperature Precipitation Wind Pressure Humidity
    00:00 +2°C° 0 mm 1 mps 671 mmHg 86%
    01:00 +2°C° 0 mm 1 mps 671 mmHg 85%
    02:00 +2°C° 0 mm 1 mps 670 mmHg 83%
    03:00 +2°C° 0 mm 1 mps 670 mmHg 82%
    04:00 +2°C° 0 mm 1 mps 670 mmHg 81%
    05:00 +2°C° 0 mm 1 mps 669 mmHg 79%
    06:00 +1°C° 0 mm 1 mps 669 mmHg 77%
    07:00 +3°C° 0 mm 1 mps 669 mmHg 73%
    08:00 +4°C° 0 mm 1 mps 669 mmHg 69%
    09:00 +5°C° 0 mm 1 mps 670 mmHg 65%
    10:00 +6°C° 0 mm 1 mps 669 mmHg 61%
    11:00 +7°C° 0 mm 1 mps 669 mmHg 57%
    12:00 +8°C° 0 mm 1 mps 668 mmHg 53%
    13:00 +8°C° 0 mm 1 mps 668 mmHg 53%
    14:00 +8°C° 0 mm 1 mps 668 mmHg 54%
    15:00 +7°C° 0 mm 1 mps 668 mmHg 55%
    16:00 +6°C° 0 mm 1 mps 668 mmHg 60%
    17:00 +4°C° 0 mm 0 mps 668 mmHg 65%
    18:00 +3°C° 0 mm 0 mps 668 mmHg 69%
    19:00 +4°C° 0 mm 1 mps 668 mmHg 69%
    20:00 +3°C° 0 mm 1 mps 668 mmHg 68%
    21:00 +3°C° 0 mm 1 mps 668 mmHg 68%
    22:00 +2°C° 0 mm 1 mps 667 mmHg 67%
    23:00 +2°C° 0 mm 1 mps 667 mmHg 66%

    19 November, Monday

    Time Temperature Precipitation Wind Pressure Humidity
    00:00 +2°C° 0 mm 1 mps 667 mmHg 65%
    01:00 +1°C° 0 mm 2 mps 667 mmHg 65%
    02:00 +1°C° 0 mm 2 mps 667 mmHg 64%
    03:00 +1°C° 0 mm 2 mps 667 mmHg 64%
    04:00 +1°C° 0 mm 2 mps 667 mmHg 64%
    05:00 +1°C° 0 mm 2 mps 667 mmHg 64%
    06:00 +1°C° 0 mm 2 mps 667 mmHg 64%
    07:00 +2°C° 0 mm 2 mps 667 mmHg 62%
    08:00 +4°C° 0 mm 2 mps 668 mmHg 60%
    09:00 +5°C° 0 mm 2 mps 668 mmHg 58%
    10:00 +6°C° 0 mm 2 mps 668 mmHg 55%
    11:00 +8°C° 0 mm 2 mps 667 mmHg 53%
    12:00 +9°C° 0 mm 2 mps 667 mmHg 51%
    13:00 +9°C° 0 mm 2 mps 667 mmHg 52%
    14:00 +9°C° 0 mm 2 mps 667 mmHg 53%
    15:00 +9°C° 0 mm 2 mps 667 mmHg 55%
    16:00 +8°C° 0 mm 2 mps 667 mmHg 59%
    17:00 +6°C° 0 mm 2 mps 667 mmHg 64%
    18:00 +5°C° 0 mm 2 mps 667 mmHg 69%
    19:00 +5°C° 0 mm 2 mps 667 mmHg 69%
    20:00 +5°C° 0 mm 2 mps 667 mmHg 69%
    21:00 +4°C° 0 mm 2 mps 667 mmHg 68%
    22:00 +4°C° 0 mm 2 mps 668 mmHg 69%
    23:00 +4°C° 0 mm 2 mps 668 mmHg 69%

    20 November, Tuesday

    Time Temperature Precipitation Wind Pressure Humidity
    00:00 +4°C° 0 mm 2 mps 668 mmHg 69%
    01:00 +4°C° 0 mm 2 mps 668 mmHg 70%
    02:00 +4°C° 0 mm 2 mps 668 mmHg 70%
    03:00 +4°C° 0 mm 2 mps 668 mmHg 71%
    04:00 +4°C° 0 mm 2 mps 668 mmHg 70%
    05:00 +4°C° 0 mm 2 mps 668 mmHg 70%
    06:00 +4°C° 0 mm 2 mps 668 mmHg 69%
    07:00 +5°C° 0 mm 2 mps 668 mmHg 67%
    08:00 +6°C° 0 mm 2 mps 669 mmHg 65%
    09:00 +7°C° 0 mm 2 mps 669 mmHg 63%
    10:00 +9°C° 0 mm 1 mps 669 mmHg 59%
    11:00 +10°C° 0 mm 1 mps 669 mmHg 55%
    12:00 +12°C° 0 mm 1 mps 669 mmHg 51%
    13:00 +11°C° 0 mm 1 mps 669 mmHg 52%
    14:00 +11°C° 0 mm 1 mps 669 mmHg 53%
    15:00 +11°C° 0 mm 1 mps 669 mmHg 55%
    16:00 +10°C° 0 mm 1 mps 669 mmHg 59%
    17:00 +8°C° 0 mm 1 mps 669 mmHg 64%
    18:00 +7°C° 0 mm 1 mps 669 mmHg 68%
    19:00 +7°C° 0 mm 1 mps 669 mmHg 69%
    20:00 +6°C° 0 mm 1 mps 670 mmHg 69%
    21:00 +6°C° 0 mm 1 mps 670 mmHg 69%
    22:00 +5°C° 0 mm 2 mps 670 mmHg 69%
    23:00 +5°C° 0 mm 2 mps 670 mmHg 68%

    21 November, Wednesday

    Time Temperature Precipitation Wind Pressure Humidity
    00:00 +5°C° 0 mm 2 mps 669 mmHg 68%
    01:00 +5°C° 0 mm 2 mps 669 mmHg 68%
    02:00 +4°C° 0 mm 2 mps 669 mmHg 68%
    03:00 +4°C° 0 mm 2 mps 669 mmHg 68%
    04:00 +4°C° 0 mm 2 mps 669 mmHg 67%
    05:00 +4°C° 0 mm 2 mps 668 mmHg 67%
    06:00 +4°C° 0 mm 2 mps 668 mmHg 67%
    07:00 +6°C° 0 mm 2 mps 668 mmHg 64%
    08:00 +7°C° 0 mm 2 mps 669 mmHg 60%
    09:00 +8°C° 0 mm 2 mps 669 mmHg 57%
    10:00 +9°C° 0 mm 2 mps 669 mmHg 54%
    11:00 +12°C° 0 mm 2 mps 668 mmHg 50%
    12:00 +14°C° 0 mm 2 mps 668 mmHg 47%
    13:00 +13°C° 0 mm 2 mps 668 mmHg 48%
    14:00 +13°C° 0 mm 2 mps 667 mmHg 49%
    15:00 +13°C° 0 mm 2 mps 667 mmHg 51%
    16:00 +12°C° 0 mm 2 mps 667 mmHg 55%
    17:00 +9°C° 0 mm 2 mps 666 mmHg 58%
    18:00 +8°C° 0 mm 2 mps 666 mmHg 62%
    19:00 +8°C° 0 mm 2 mps 666 mmHg 62%
    20:00 +7°C° 0 mm 2 mps 666 mmHg 62%
    21:00 +7°C° 0 mm 2 mps 666 mmHg 61%
    22:00 +7°C° 0 mm 2 mps 666 mmHg 62%
    23:00 +6°C° 0 mm 2 mps 665 mmHg 63%
    Show more